Вернуться в каталог

CZ-4C DEB

АктивенPO
NORAD 43601·DEBRIS·🇨🇳 China

Запущен Aug 9, 2016 с Taiyuan Satellite Launch Center

Loading…

Ближайшие Пролёты (ближайшие 24 часа)

TLE

СвежийSource: Space-Track

Эпоха: Sep 13, 2026, 08:48 UTC

1 43601U 16049F   26256.36704336  .00011730  00000-0  82060-3 0  9998
2 43601  98.3444  46.2069 0061572 256.1439 103.2930 15.03911264645898

Отслеживайте CZ-4C DEB в реальном времени с AllMySat

Download on the App Store